Location: Moscow
(30.9132°N, 94.8252°W)
Time: 12:38:11
(UTC+00:00)

Landsat 7 - Pass Details

Date: 15 November 2025
Orbit: 680 x 682 km, 97.9° (Epoch: 11 December)

Event Time Altitude Azimuth Distance (km) Brightness Sun altitude
Rises 00:06:02 0° 167° (SSE) 3,027 7.1 -9.8°
Reaches altitude 10° 00:08:16 10° 167° (SSE) 2,115 6.3 -10.3°
Maximum altitude 00:12:54 90° 94° (E) 686 3.7 -11.2°
Drops below altitude 10° 00:17:34 10° 348° (NNW) 2,126 6.3 -12.2°
Sets 00:19:48 0° 349° (NNW) 3,045 7.1 -12.7°
